Weather History for Jaffrey, NH

Change the Weather History Date:

Tuesday, February 4, 2014

  Actual Average Record
Temperature  
Mean Temperature 19 °F -  
Max Temperature 30 °F 31 °F 45 °F (2006)
Min Temperature 8 °F 12 °F -5 °F (2011)
Degree Days  
Heating Degree Days 46    
Moisture  
Dew Point 12 °F    
Average Humidity 72    
Maximum Humidity 88    
Minimum Humidity 45    
Precipitation  
Precipitation 0.00 in - - ()
Sea Level Pressure  
Sea Level Pressure 30.39 in    
Wind  
Wind Speed 1 mph (South)    
Max Wind Speed 6 mph    
Max Gust Speed -    
Visibility 8 miles    
Events Fog    
Averages and records for this station are not official NWS values.
T = Trace of Precipitation, MM = Missing Value Source: NWS Daily Summary

Daily Weather History Graph

Daily Weather History Graph

Search for Another Location

Airport:

Trip Planner

Search our weather history database for the weather conditions in past years. The results will help you decide how hot, cold, wet, or windy it might be!

Date:

Astronomy

Feb. 04, 2014 Rise Set
Actual Time 6:59 AM EST 5:05 PM EST
Civil Twilight 6:29 AM EST 5:34 PM EST
Nautical Twilight 5:55 AM EST 6:08 PM EST
Astronomical Twilight 5:22 AM EST 6:41 PM EST
Moon 9:26 AM EST (2/4) 11:05 PM EST (2/4)
Length of Visible Light 11h 05m
Length of Day
10h 05m
Waxing Crescent, 29% of the Moon is Illuminated
Feb 4
Waxing Crescent
Feb 6
First Quarter
Feb 14
Full
Feb 22
Last Quarter
Mar 1
New

Hourly Weather History & Observations

Time (EST) Temp. Windchill Dew Point Humidity Pressure Visibility Wind Dir Wind Speed Gust Speed Precip Events Conditions
12:52 AM 12.9 °F - 9.0 °F 84% 30.31 in 10.0 mi Calm Calm - N/A   Clear
1:52 AM 12.9 °F - 8.1 °F 81% 30.33 in 10.0 mi Calm Calm - N/A   Clear
2:52 AM 10.0 °F - 6.1 °F 84% 30.35 in 10.0 mi Calm Calm - N/A   Clear
3:52 AM 9.0 °F - 5.0 °F 84% 30.35 in 10.0 mi Calm Calm - N/A   Clear
4:52 AM 9.0 °F - 5.0 °F 84% 30.37 in 10.0 mi Calm Calm - N/A   Clear
5:52 AM 8.1 °F 1.4 °F 3.0 °F 80% 30.39 in 10.0 mi South 3.5 mph - N/A   Clear
6:52 AM 8.1 °F 1.4 °F 3.9 °F 83% 30.42 in 10.0 mi South 3.5 mph - N/A   Clear
7:52 AM 10.0 °F 3.6 °F 5.0 °F 80% 30.43 in 8.0 mi SSE 3.5 mph - N/A   Clear
8:42 AM 15.1 °F - 12.0 °F 88% 30.38 in 2.0 mi Calm Calm - N/A   Clear
8:46 AM 15.8 °F - 12.2 °F 86% 30.38 in 1.2 mi Calm Calm - N/A   Clear
8:48 AM 15.8 °F - 12.2 °F 86% 30.38 in 0.8 mi Calm Calm - N/A   Clear
8:52 AM 17.1 °F - 12.9 °F 84% 30.45 in 0.2 mi Calm Calm - N/A Fog Light Freezing Fog
9:01 AM 19.0 °F - 15.1 °F 85% 30.38 in 4.0 mi Calm Calm - N/A   Mist
9:52 AM 24.1 °F - 12.0 °F 60% 30.46 in 10.0 mi North - - N/A   Clear
10:52 AM 25.0 °F 19.3 °F 10.9 °F 55% 30.44 in 10.0 mi Variable 4.6 mph - N/A   Clear
11:52 AM 26.1 °F 21.9 °F 12.0 °F 55% 30.42 in 10.0 mi Variable 3.5 mph - N/A   Clear
12:52 PM 28.9 °F 22.8 °F 12.9 °F 51% 30.39 in 10.0 mi Variable 5.8 mph - N/A   Clear
1:52 PM 28.9 °F 23.9 °F 12.0 °F 49% 30.38 in 10.0 mi WSW 4.6 mph - N/A   Clear
2:52 PM 30.0 °F - 10.9 °F 45% 30.38 in 10.0 mi Calm Calm - N/A   Clear
3:52 PM 28.9 °F 22.8 °F 14.0 °F 54% 30.35 in 10.0 mi South 5.8 mph - N/A   Clear
4:52 PM 28.9 °F - 15.1 °F 56% 30.37 in 10.0 mi Calm Calm - N/A   Clear
5:52 PM 27.0 °F 21.6 °F 17.1 °F 66% 30.40 in 10.0 mi SSW 4.6 mph - N/A   Clear
6:52 PM 27.0 °F 20.5 °F 16.0 °F 63% 30.42 in 10.0 mi South 5.8 mph - N/A   Clear
7:52 PM 26.1 °F 21.9 °F 18.0 °F 71% 30.40 in 10.0 mi SSW 3.5 mph - N/A   Clear
8:52 PM 26.1 °F 21.9 °F 18.0 °F 71% 30.40 in 10.0 mi South 3.5 mph - N/A   Clear
9:52 PM 25.0 °F - 19.0 °F 78% 30.39 in 10.0 mi Calm Calm - N/A   Clear
10:52 PM 26.1 °F - 19.0 °F 75% 30.38 in 10.0 mi Calm Calm - N/A   Overcast
11:52 PM 26.1 °F 20.5 °F 19.0 °F 75% 30.29 in 10.0 mi Variable 4.6 mph - N/A   Overcast